Location: Karcze
(52.0945°N, 22.4786°E)
Time: 00:15:23
(UTC+00:00)

A-11 Canister half - Pass Details

Date: 01 August 2021
Orbit: 1515 x 1685 km, 47.2° (Epoch: 19 September)

Event Time Altitude Azimuth Distance (km) Brightness Sun altitude
Rises 18:56:19 0° 270° (W) 4,859 12.6 -5.4°
Reaches altitude 10° 18:59:27 10° 268° (W) 3,892 11.9 -5.8°
Maximum altitude 19:09:18 65° 190° (S) 1,809 9.3 -6.9°
Drops below altitude 10° 19:19:19 10° 111° (ESE) 3,949 10.6 -8.1°
Enters shadow 19:20:39 - 110° (ESE) 4,356 10.8 -8.2°
Sets 19:22:30 0° 109° (ESE) 4,933 - -8.4°
